Home   Weather   Leer   Past weeks

Flag for Germany Past Weather in Leer, Lower Saxony, Germany — Yesterday and Last 2 Weeks

Now
65 °F

Overcast.


Feels Like: 65 °F
Forecast: 57 / 67 °F
Wind: 3 mph from West

Location: Emden-Koenigspolder

Current Time: Sep 28, 2016 at 8:48:51 PM

Latest Report: Sep 28, 2016 at 7:00 PM


Visibility: 14 mi

Pressure: 30.11 "Hg

Humidity: 69%

Dew Point: 55 °F

Location of LeerLocation

Past Weather in Leer — Graph

°F

Leer Temperature Yesterday

Maximum temperature yesterday: 69 °F (at 4:00 PM)
Minimum temperature yesterday: 44 °F (at 7:00 AM)
Average temperature yesterday: 56 °F

High & Low Weather Summary for the Past Weeks

 TemperatureHumidityPressure
High82 °F (Sep 14, 3:00 PM)100% (Sep 17, 4:00 AM)30.30 "Hg (Sep 17, 4:00 AM)
Low44 °F (Sep 27, 7:00 AM)46% (Sep 19, 4:00 PM)29.85 "Hg (Sep 16, 1:00 AM)
Average61 °F77%30.09 "Hg
* Reported Sep 13 7:00 PM — Sep 28 7:00 PM, Leer, Weather by CustomWeather, © 2016

Note: Actual official high and low records may vary slightly from our data, if they occured in-between our weather recording intervals... More about our weather records

Advertising

Leer Weather History for the Previous 24 Hours

Scroll right to see more
 ConditionsComfort  
Time TempWeatherWind HumidityBarometerVisibility
7:00 PM
Wed, Sep 28
65 °FOvercast.3 mph69%30.11 "Hg14 mi
6:00 PM65 °FOvercast.6 mph68%30.12 "Hg17 mi
4:00 PM68 °FScattered clouds.9 mph62%30.11 "Hg3 mi
3:00 PM68 °FOvercast.8 mph60%30.11 "Hg12 mi
1:00 PM67 °FOvercast.8 mph66%30.11 "Hg9 mi
12:00 PM67 °FOvercast.8 mph69%30.11 "Hg12 mi
10:00 AM65 °FScattered clouds.8 mph79%30.11 "Hg6 mi
9:00 AM64 °FOvercast.6 mph84%30.11 "Hg19 mi
7:00 AM62 °FOvercast.6 mph87%30.11 "Hg11 mi
6:00 AM61 °FOvercast.6 mph84%30.13 "Hg14 mi
4:00 AM61 °FPassing clouds.7 mph72%30.12 "Hg22 mi
3:00 AM62 °FOvercast.6 mph64%30.15 "Hg22 mi
1:00 AM62 °FOvercast.7 mph62%30.18 "Hg19 mi
12:00 AM62 °FOvercast.6 mph61%30.21 "Hg19 mi
10:00 PM
Tue, Sep 27
63 °FOvercast.5 mph60%30.23 "Hg25 mi
9:00 PM62 °FOvercast.5 mph61%30.24 "Hg22 mi
Weather by CustomWeather, © 2016

See weather overviewHow to use our weather pages